| time (UTC) | temp F | wind direction | speed MPH | gust MPH | rain 1hr in | rain 24hr in | rain mn in | humidity % | barometer mb |
| 20260506170001 | 47 | 203 | 3.0 | 12.0 | 0.00 | 0.00 | 0.00 | 46 | 1014.5 |
| 20260506164557 | 48 | 212 | 5.0 | 14.0 | 0.00 | 0.00 | 0.00 | 44 | 1014.4 |
| 20260506163057 | 48 | 212 | 3.0 | 13.0 | 0.00 | 0.00 | 0.00 | 45 | 1014.4 |
| 20260506161549 | 49 | 207 | 4.0 | 12.0 | 0.00 | 0.00 | 0.00 | 46 | 1014.3 |
| 20260506160045 | 50 | 223 | 3.0 | 13.0 | 0.00 | 0.00 | 0.00 | 45 | 1014.3 |
| 20260506154555 | 51 | 212 | 2.0 | 13.0 | 0.00 | 0.00 | 0.00 | 43 | 1014.4 |
| 20260506153035 | 51 | 203 | 5.0 | 13.0 | 0.00 | 0.00 | 0.00 | 40 | 1014.4 |
| 20260506151532 | 51 | 188 | 4.0 | 12.0 | 0.00 | 0.00 | 0.00 | 40 | 1014.5 |
| 20260506150026 | 51 | 225 | 3.0 | 11.0 | 0.00 | 0.00 | 0.00 | 41 | 1014.5 |
| 20260506144522 | 53 | 118 | 4.0 | 13.0 | 0.00 | 0.00 | 0.00 | 40 | 1014.7 |
| 20260506143024 | 52 | 207 | 7.0 | 16.0 | 0.00 | 0.00 | 0.00 | 40 | 1014.7 |
| 20260506141514 | 53 | 177 | 4.0 | 15.0 | 0.00 | 0.00 | 0.00 | 39 | 1014.7 |
| 20260506140016 | 53 | 195 | 4.0 | 13.0 | 0.00 | 0.00 | 0.00 | 38 | 1014.6 |
| 20260506134504 | 52 | 212 | 5.0 | 14.0 | 0.00 | 0.00 | 0.00 | 39 | 1014.6 |
| 20260506133000 | 52 | 242 | 4.0 | 12.0 | 0.00 | 0.00 | 0.00 | 38 | 1014.8 |
| 20260506131557 | 50 | 212 | 3.0 | 15.0 | 0.00 | 0.00 | 0.00 | 39 | 1014.9 |
| 20260506130110 | 51 | 212 | 5.0 | 12.0 | 0.00 | 0.00 | 0.00 | 38 | 1014.8 |
| 20260506124547 | 50 | 212 | 3.0 | 14.0 | 0.00 | 0.00 | 0.00 | 40 | 1014.8 |
| 20260506123044 | 50 | 212 | 3.0 | 12.0 | 0.00 | 0.00 | 0.00 | 39 | 1014.8 |
| 20260506121539 | 49 | 212 | 4.0 | 14.0 | 0.00 | 0.00 | 0.00 | 40 | 1014.8 |
| 20260506120035 | 48 | 212 | 3.0 | 10.0 | 0.00 | 0.00 | 0.00 | 40 | 1014.9 |
| 20260506114536 | 48 | 121 | 4.0 | 13.0 | 0.00 | 0.00 | 0.00 | 40 | 1014.9 |
| 20260506113026 | 48 | 212 | 4.0 | 12.0 | 0.00 | 0.00 | 0.00 | 38 | 1014.9 |
| 20260506111521 | 48 | 127 | 5.0 | 14.0 | 0.00 | 0.00 | 0.00 | 36 | 1014.9 |
| 20260506110017 | 48 | 212 | 3.0 | 12.0 | 0.00 | 0.00 | 0.00 | 34 | 1014.9 |
| 20260506104532 | 47 | 190 | 5.0 | 11.0 | 0.00 | 0.00 | 0.00 | 34 | 1014.7 |
| 20260506103009 | 47 | 212 | 4.0 | 10.0 | 0.00 | 0.00 | 0.00 | 33 | 1014.7 |
| 20260506101507 | 46 | 212 | 3.0 | 10.0 | 0.00 | 0.00 | 0.00 | 35 | 1014.7 |
| 20260506100059 | 46 | 188 | 3.0 | 8.0 | 0.00 | 0.00 | 0.00 | 35 | 1014.8 |
| 20260506094556 | 47 | 207 | 2.0 | 7.0 | 0.00 | 0.00 | 0.00 | 35 | 1014.9 |
| 20260506093051 | 47 | 212 | 2.0 | 7.0 | 0.00 | 0.00 | 0.00 | 32 | 1014.8 |
| 20260506091547 | 47 | 203 | 3.0 | 7.0 | 0.00 | 0.00 | 0.00 | 30 | 1014.9 |
| 20260506090046 | 46 | 187 | 3.0 | 10.0 | 0.00 | 0.00 | 0.00 | 28 | 1014.8 |
| 20260506084538 | 45 | 202 | 0.0 | 6.0 | 0.00 | 0.00 | 0.00 | 28 | 1014.7 |
| 20260506083040 | 45 | 212 | 0.0 | 8.0 | 0.00 | 0.00 | 0.00 | 27 | 1014.7 |
| 20260506081529 | 44 | 192 | 2.0 | 7.0 | 0.00 | 0.00 | 0.00 | 25 | 1014.7 |
| 20260506073016 | 43 | 154 | 1.0 | 6.0 | 0.00 | 0.01 | 0.00 | 14 | 1014.6 |
| 20260506071513 | 42 | 121 | 2.0 | 6.0 | 0.00 | 0.01 | 0.00 | 5 | 1014.6 |
| 20260506061555 | 36 | 189 | 0.0 | 1.0 | 0.00 | 0.01 | 0.00 | 1 | 1014.7 |
| 20260506044534 | 30 | 189 | 0.0 | 0.0 | 0.00 | 0.01 | 0.00 | 1 | 1014.5 |
| 20260506043026 | 30 | 189 | 0.0 | 0.0 | 0.00 | 0.01 | 0.00 | 1 | 1014.5 |
| 20260506041521 | 30 | 189 | 0.0 | 0.0 | 0.00 | 0.01 | 0.00 | 1 | 1014.5 |
| 20260506040028 | 30 | 212 | 0.0 | 0.0 | 0.00 | 0.01 | 0.00 | 1 | 1014.4 |
| 20260506034512 | 30 | 212 | 0.0 | 1.0 | 0.00 | 0.01 | 0.00 | 1 | 1014.4 |
| 20260506033006 | 30 | 189 | 0.0 | 0.0 | 0.00 | 0.01 | 0.00 | 1 | 1014.4 |
| 20260506031503 | 30 | 212 | 0.0 | 0.0 | 0.00 | 0.01 | 0.00 | 1 | 1014.3 |
| 20260506024554 | 31 | 189 | 0.0 | 1.0 | 0.00 | 0.01 | 0.00 | 1 | 1014.3 |
| 20260506023050 | 31 | 189 | 0.0 | 1.0 | 0.00 | 0.01 | 0.00 | 1 | 1014.4 |
| 20260506021555 | 31 | 189 | 0.0 | 1.0 | 0.00 | 0.01 | 0.00 | 1 | 1014.4 |
| 20260506020041 | 32 | 189 | 0.0 | 0.0 | 0.00 | 0.01 | 0.00 | 1 | 1014.5 |
| 20260506014536 | 32 | 189 | 0.0 | 0.0 | 0.00 | 0.01 | 0.00 | 1 | 1014.4 |
| 20260506013032 | 32 | 212 | 0.0 | 0.0 | 0.00 | 0.01 | 0.00 | 1 | 1014.5 |
| 20260506011531 | 32 | 212 | 0.0 | 1.0 | 0.00 | 0.01 | 0.00 | 1 | 1014.4 |
| 20260506010024 | 32 | 189 | 0.0 | 0.0 | 0.00 | 0.01 | 0.00 | 1 | 1014.4 |
| 20260506004518 | 33 | 189 | 0.0 | 0.0 | 0.00 | 0.01 | 0.00 | 1 | 1014.4 |
| 20260506003015 | 33 | 212 | 0.0 | 0.0 | 0.00 | 0.01 | 0.00 | 1 | 1014.5 |
| 20260506001513 | 33 | 212 | 0.0 | 0.0 | 0.00 | 0.01 | 0.00 | 1 | 1014.5 |
| 20260506000006 | 34 | 212 | 0.0 | 1.0 | 0.00 | 0.01 | 0.00 | 1 | 1014.5 |
| 20260505234505 | 34 | 212 | 0.0 | 0.0 | 0.00 | 0.01 | 0.00 | 4 | 1014.5 |
| 20260505233057 | 34 | 212 | 0.0 | 0.0 | 0.00 | 0.01 | 0.00 | 7 | 1014.5 |
| 20260505231554 | 35 | 189 | 0.0 | 1.0 | 0.00 | 0.01 | 0.00 | 7 | 1014.4 |
| 20260505230051 | 35 | 189 | 0.0 | 1.0 | 0.00 | 0.01 | 0.00 | 12 | 1014.4 |
| 20260505224545 | 36 | 189 | 0.0 | 1.0 | 0.00 | 0.01 | 0.00 | 14 | 1014.5 |
| 20260505223046 | 36 | 189 | 0.0 | 0.0 | 0.00 | 0.01 | 0.00 | 14 | 1014.4 |
| 20260505221536 | 37 | 189 | 0.0 | 1.0 | 0.00 | 0.01 | 0.00 | 15 | 1014.4 |
| 20260505220032 | 37 | 189 | 0.0 | 2.0 | 0.00 | 0.01 | 0.00 | 17 | 1014.4 |
| 20260505214534 | 37 | 189 | 0.0 | 1.0 | 0.00 | 0.01 | 0.01 | 22 | 1014.3 |
| 20260505213022 | 38 | 189 | 0.0 | 1.0 | 0.00 | 0.01 | 0.01 | 25 | 1014.4 |
| 20260505211534 | 38 | 189 | 0.0 | 2.0 | 0.00 | 0.01 | 0.01 | 26 | 1014.4 |
| 20260505210014 | 38 | 189 | 0.0 | 1.0 | 0.00 | 0.01 | 0.01 | 30 | 1014.5 |
| 20260505204509 | 39 | 189 | 0.0 | 4.0 | 0.00 | 0.01 | 0.01 | 33 | 1014.3 |
| 20260505203005 | 39 | 189 | 0.0 | 1.0 | 0.00 | 0.01 | 0.01 | 37 | 1014.3 |
| 20260505201501 | 40 | 189 | 0.0 | 2.0 | 0.00 | 0.01 | 0.01 | 39 | 1014.3 |
| 20260505200058 | 40 | 189 | 0.0 | 1.0 | 0.00 | 0.01 | 0.01 | 39 | 1014.4 |
| 20260505194552 | 41 | 188 | 0.0 | 4.0 | 0.00 | 0.01 | 0.01 | 39 | 1014.2 |
| 20260505193047 | 42 | 160 | 0.0 | 4.0 | 0.00 | 0.01 | 0.01 | 40 | 1014.2 |
| 20260505191550 | 42 | 212 | 0.0 | 4.0 | 0.00 | 0.01 | 0.01 | 40 | 1014.1 |
| 20260505190041 | 43 | 160 | 1.0 | 6.0 | 0.00 | 0.01 | 0.01 | 38 | 1014.0 |
| 20260505184545 | 44 | 212 | 1.0 | 4.0 | 0.00 | 0.01 | 0.01 | 38 | 1013.9 |
| 20260505183038 | 45 | 196 | 2.0 | 7.0 | 0.00 | 0.01 | 0.01 | 39 | 1013.7 |
| 20260505181526 | 46 | 212 | 2.0 | 9.0 | 0.00 | 0.01 | 0.01 | 39 | 1013.7 |
| 20260505180022 | 46 | 141 | 4.0 | 11.0 | 0.00 | 0.01 | 0.01 | 39 | 1013.7 |
| 20260505174517 | 46 | 150 | 5.0 | 9.0 | 0.00 | 0.01 | 0.01 | 39 | 1013.8 |
| 20260505173016 | 47 | 138 | 4.0 | 11.0 | 0.00 | 0.01 | 0.01 | 40 | 1013.8 |
| 20260505171509 | 49 | 212 | 2.0 | 8.0 | 0.00 | 0.01 | 0.01 | 39 | 1013.8 |